W0RMT-13 Weather Reports


time (UTC)temp
F
wind
direction
speed
knots
gust
knots
rain 1hr
in
rain 24hr
in
rain mn
in
humidity
%
barometer
mb
20240222040007 41 143 0.0 1.7 0.00 0.00 0.00 61 1011.8
20240222035606 41 117 0.0 1.7 0.00 0.00 0.00 61 1012.2
20240222035500 41 128 0.0 1.7 0.00 0.00 0.00 61 1012.2
20240222034952 42 82 0.9 4.3 0.00 0.00 0.00 61 1011.8
20240222034602 42 170 0.0 4.3 0.00 0.00 0.00 60 1011.8
20240222034444 42 160 0.0 4.3 0.00 0.00 0.00 60 1011.5
20240222033937 42 139 0.0 4.3 0.00 0.00 0.00 62 1011.8
20240222033555 42 173 0.0 4.3 0.00 0.00 0.00 60 1011.5
20240222033427 42 94 0.0 4.3 0.00 0.00 0.00 60 1011.5
20240222032919 42 182 0.0 1.7 0.00 0.00 0.00 60 1011.5
20240222032550 42 68 0.9 1.7 0.00 0.00 0.00 59 1011.5
20240222032410 42 110 0.0 1.7 0.00 0.00 0.00 59 1011.5
20240222031902 42 207 0.0 1.7 0.00 0.00 0.00 58 1011.5
20240222031544 42 177 0.0 1.7 0.00 0.00 0.00 58 1011.5
20240222031354 42 94 0.0 1.7 0.00 0.00 0.00 59 1011.0
20240222030846 42 182 0.0 1.7 0.00 0.00 0.00 59 1011.5
20240222030538 42 188 0.0 1.7 0.00 0.00 0.00 58 1011.5
20240222030338 42 184 0.0 1.7 0.00 0.00 0.00 59 1011.0
20240222025829 42 195 0.0 1.7 0.00 0.00 0.00 60 1011.0
20240222025553 42 69 0.9 1.7 0.00 0.00 0.00 60 1011.0
20240222025533 42 176 0.0 1.7 0.00 0.00 0.00 59 1010.7
20240222024813 42 196 0.0 1.7 0.00 0.00 0.00 60 1010.7
20240222024527 43 156 0.0 1.7 0.00 0.00 0.00 60 1010.7
20240222024305 43 168 0.0 1.7 0.00 0.00 0.00 60 1010.7
20240222024028 43 75 0.0 1.7 0.00 0.00 0.00 59 1010.7
20240222023522 43 77 0.9 1.7 0.00 0.00 0.00 59 1010.7
20240222023248 43 197 0.0 1.7 0.00 0.00 0.00 59 1010.2
20240222023010 43 207 0.0 1.7 0.00 0.00 0.00 58 1010.2
20240222022516 43 192 0.0 1.7 0.00 0.00 0.00 58 1010.2
20240222022230 43 176 0.0 1.7 0.00 0.00 0.00 58 1010.2
20240222021722 43 87 0.0 1.7 0.00 0.00 0.00 58 1010.2
20240222021510 43 177 0.0 1.7 0.00 0.00 0.00 57 1010.2
20240222021213 43 137 0.0 1.7 0.00 0.00 0.00 56 1010.2
20240222020705 44 185 0.0 1.7 0.00 0.00 0.00 56 1010.2
20240222020504 44 192 0.0 1.7 0.00 0.00 0.00 55 1010.2
20240222020428 44 174 0.0 0.0 0.00 0.00 0.00 55 1010.2
20240222015649 45 203 0.0 0.0 0.00 0.00 0.00 54 1010.2
20240222015459 45 195 0.0 0.0 0.00 0.00 0.00 55 1010.2
20240222015142 46 186 0.0 0.0 0.00 0.00 0.00 54 1009.8
20240222014633 46 181 0.0 1.7 0.00 0.00 0.00 52 1010.2
20240222014454 46 192 0.0 1.7 0.00 0.00 0.00 52 1010.2
20240222014358 47 175 0.0 1.7 0.00 0.00 0.00 51 1010.2
20240222013618 47 189 0.0 1.7 0.00 0.00 0.00 51 1009.8
20240222013449 47 223 0.0 1.7 0.00 0.00 0.00 51 1009.8
20240222013109 48 174 0.0 1.7 0.00 0.00 0.00 49 1009.8
20240222012832 48 130 0.0 8.7 0.00 0.00 0.00 49 1010.2
20240222012444 48 177 0.0 8.7 0.00 0.00 0.00 48 1009.8
20240222012051 49 77 0.0 8.7 0.00 0.00 0.00 46 1009.8
20240222011549 49 150 0.0 4.3 0.00 0.00 0.00 38 1009.5
20240222011443 49 22 0.0 4.3 0.00 0.00 0.00 33 1009.8
20240222011040 50 193 0.0 1.7 0.00 0.00 0.00 32 1009.8
20240222010533 50 62 0.9 1.7 0.00 0.00 0.00 31 1009.0
20240222010438 51 196 0.0 1.7 0.00 0.00 0.00 31 1009.0
20240222010254 51 218 0.0 1.7 0.00 0.00 0.00 30 1009.0
20240222005514 52 200 0.0 1.7 0.00 0.00 0.00 30 1009.5
20240222005430 52 191 0.0 1.7 0.00 0.00 0.00 29 1009.5
20240222005006 52 188 0.0 1.7 0.00 0.00 0.00 28 1009.0
20240222004457 53 156 0.0 7.0 0.00 0.00 0.00 27 1009.5
20240222004425 53 181 0.0 7.0 0.00 0.00 0.00 27 1009.0
20240222003949 53 185 0.0 7.0 0.00 0.00 0.00 27 1009.0
20240222003441 54 194 0.0 4.3 0.00 0.00 0.00 24 1009.0
20240222003419 54 192 0.9 4.3 0.00 0.00 0.00 24 1009.0
20240222003204 54 232 1.7 7.0 0.00 0.00 0.00 24 1009.5
20240222002426 55 180 0.0 13.0 0.00 0.00 0.00 24 1009.0
20240222002414 55 227 0.0 13.0 0.00 0.00 0.00 24 1009.0
20240222001917 55 171 5.2 13.0 0.00 0.00 0.00 23 1009.5
20240222001410 55 210 3.5 11.3 0.00 0.00 0.00 22 1009.5
20240222000901 56 327 1.7 13.0 0.00 0.00 0.00 23 1009.5
20240222000404 56 191 8.7 13.0 0.00 0.00 0.00 22 1009.5
20240222000355 56 170 0.0 7.0 0.00 0.00 0.00 21 1009.5
20240221235846 56 251 0.0 7.0 0.00 0.00 0.00 21 1008.7
20240221235400 57 198 2.6 7.0 0.00 0.00 0.00 21 1008.2
20240221235339 57 203 2.6 7.0 0.00 0.00 0.00 20 1008.2
20240221234830 58 330 2.6 8.7 0.00 0.00 0.00 20 1008.2
20240221234356 58 184 1.7 8.7 0.00 0.00 0.00 19 1008.2
20240221234323 58 168 0.0 8.7 0.00 0.00 0.00 19 1008.2
20240221233815 58 254 1.7 7.0 0.00 0.00 0.00 19 1008.2
20240221233351 59 226 1.7 7.0 0.00 0.00 0.00 19 1008.2
20240221233306 59 247 1.7 7.0 0.00 0.00 0.00 20 1008.2
20240221233030 59 301 0.9 7.0 0.00 0.00 0.00 18 1008.2
20240221232346 60 263 3.5 7.0 0.00 0.00 0.00 16 1008.2
20240221232250 60 316 2.6 7.0 0.00 0.00 0.00 17 1008.2
20240221232244 60 167 0.0 8.7 0.00 0.00 0.00 17 1008.2
20240221231341 60 307 4.3 8.7 0.00 0.00 0.00 18 1008.2
20240221231235 61 300 2.6 8.7 0.00 0.00 0.00 18 1008.2
20240221230727 61 252 0.0 8.7 0.00 0.00 0.00 18 1007.8
20240221230337 61 312 4.3 11.3 0.00 0.00 0.00 17 1007.8
20240221230220 61 293 1.7 11.3 0.00 0.00 0.00 18 1007.8
20240221225709 61 315 2.6 11.3 0.00 0.00 0.00 17 1007.8
20240221225329 61 184 1.7 11.3 0.00 0.00 0.00 18 1007.8
20240221225201 61 208 5.2 11.3 0.00 0.00 0.00 17 1007.8
20240221224653 60 320 1.7 11.3 0.00 0.00 0.00 17 1007.8
20240221224324 60 199 0.0 7.0 0.00 0.00 0.00 18 1007.5
20240221224146 60 303 3.5 8.7 0.00 0.00 0.00 17 1007.8
20240221223638 60 213 0.0 8.7 0.00 0.00 0.00 18 1007.0
20240221223320 61 271 1.7 8.7 0.00 0.00 0.00 18 1007.0
20240221223131 61 247 0.9 8.7 0.00 0.00 0.00 18 1007.5
20240221222623 61 277 0.9 8.7 0.00 0.00 0.00 18 1007.0
20240221222316 61 352 2.6 11.3 0.00 0.00 0.00 17 1007.5
20240221222115 61 274 1.7 11.3 0.00 0.00 0.00 18 1007.5
20240221221608 62 357 5.2 11.3 0.00 0.00 0.00 16 1007.0
20240221221331 62 149 0.0 7.0 0.00 0.00 0.00 17 1007.0
20240221221312 62 192 4.3 7.0 0.00 0.00 0.00 17 1007.0
20240221221054 62 329 1.7 7.0 0.00 0.00 0.00 17 1007.0
20240221220308 62 195 0.0 4.3 0.00 0.00 0.00 22 1007.0
20240221220044 62 227 0.0 4.3 0.00 0.00 0.00 19 1007.0
20240221215536 62 44 1.7 4.3 0.00 0.00 0.00 23 1007.0
20240221215306 62 151 0.0 1.7 0.00 0.00 0.00 24 1007.0
20240221215029 62 26 0.0 4.3 0.00 0.00 0.00 25 1007.0
20240221214521 61 146 0.0 4.3 0.00 0.00 0.00 24 1007.0
20240221214258 61 174 0.0 7.0 0.00 0.00 0.00 25 1007.0
20240221214012 61 263 0.9 7.0 0.00 0.00 0.00 24 1007.0
20240221213504 60 53 1.7 8.7 0.00 0.00 0.00 27 1006.7
20240221213252 60 156 0.9 8.7 0.00 0.00 0.00 26 1006.7
20240221212956 60 49 3.5 8.7 0.00 0.00 0.00 27 1006.7
20240221212448 60 74 1.7 7.0 0.00 0.00 0.00 29 1006.7
20240221212247 60 214 0.9 7.0 0.00 0.00 0.00 30 1006.7
20240221211939 59 107 0.9 7.0 0.00 0.00 0.00 31 1007.0
20240221211431 59 260 0.0 7.0 0.00 0.00 0.00 32 1007.0
20240221211241 59 68 3.5 7.0 0.00 0.00 0.00 33 1006.7
20240221211155 59 107 0.0 4.3 0.00 0.00 0.00 33 1006.7
20240221210414 58 319 0.9 11.3 0.00 0.00 0.00 34 1006.7
20240221210236 58 181 0.9 11.3 0.00 0.00 0.00 34 1007.0
20240221205907 58 73 5.2 11.3 0.00 0.00 0.00 36 1006.7
20240221205359 58 202 0.9 7.0 0.00 0.00 0.00 37 1006.7
20240221205231 58 68 1.7 7.0 0.00 0.00 0.00 37 1006.7
20240221204850 58 143 0.0 7.0 0.00 0.00 0.00 38 1006.7
20240221204343 57 353 1.7 7.0 0.00 0.00 0.00 37 1006.7
20240221204226 57 194 0.0 7.0 0.00 0.00 0.00 39 1006.7
20240221203834 57 158 0.0 8.7 0.00 0.00 0.00 41 1006.7
20240221203327 57 144 3.5 8.7 0.00 0.00 0.00 39 1006.7
20240221203220 57 224 0.9 7.0 0.00 0.00 0.00 41 1006.7
20240221203050 57 154 1.7 7.0 0.00 0.00 0.00 41 1006.7
20240221202310 57 139 1.7 7.0 0.00 0.00 0.00 40 1007.0
20240221202217 57 106 1.7 7.0 0.00 0.00 0.00 39 1007.0
20240221201803 56 181 0.0 7.0 0.00 0.00 0.00 43 1007.0
20240221201255 56 77 2.6 7.0 0.00 0.00 0.00 42 1007.0
20240221201211 56 219 0.9 7.0 0.00 0.00 0.00 41 1007.0
20240221200751 55 58 2.6 7.0 0.00 0.00 0.00 43 1007.0
20240221200511 55 72 2.6 7.0 0.00 0.00 0.00 44 1007.5
20240221200206 55 194 1.7 7.0 0.00 0.00 0.00 44 1007.5
20240221200002 55 77 3.5 7.0 0.00 0.00 0.00 45 1007.5
20240221195223 55 173 0.0 7.0 0.00 0.00 0.00 46 1007.5
20240221195202 55 251 0.9 7.0 0.00 0.00 0.00 47 1007.5
20240221194715 55 190 0.0 7.0 0.00 0.00 0.00 47 1007.5
20240221194207 55 149 0.0 8.7 0.00 0.00 0.00 47 1007.8
20240221194157 55 140 0.0 8.7 0.00 0.00 0.00 47 1007.8
20240221193929 55 325 1.7 8.7 0.00 0.00 0.00 45 1007.8
20240221193652 54 322 2.6 7.0 0.00 0.00 0.00 44 1007.8
20240221193255 54 322 2.6 7.0 0.00 0.00 0.00 44 1007.8
20240221192642 54 261 1.7 7.0 0.00 0.00 0.00 44 1007.8
20240221192145 54 78 4.3 7.0 0.00 0.00 0.00 46 1007.8
20240221192134 54 70 2.6 7.0 0.00 0.00 0.00 47 1007.8
20240221191626 54 77 3.5 7.0 0.00 0.00 0.00 47 1008.2
20240221191139 54 55 1.7 7.0 0.00 0.00 0.00 45 1008.2
20240221191117 55 69 1.7 7.0 0.00 0.00 0.00 45 1008.2
20240221190839 55 80 2.6 7.0 0.00 0.00 0.00 46 1008.2
20240221190133 55 49 2.6 7.0 0.00 0.00 0.00 47 1008.2
20240221190100 55 32 2.6 7.0 0.00 0.00 0.00 47 1008.2
20240221185552 55 82 2.6 7.0 0.00 0.00 0.00 46 1008.7
20240221185127 55 296 1.7 7.0 0.00 0.00 0.00 46 1008.7
20240221185043 55 67 4.3 7.0 0.00 0.00 0.00 46 1008.7
20240221184535 54 175 0.9 7.0 0.00 0.00 0.00 45 1008.7
20240221184257 54 299 1.7 7.0 0.00 0.00 0.00 47 1008.7
20240221184137 54 103 0.9 7.0 0.00 0.00 0.00 46 1008.7
20240221183518 54 75 1.7 7.0 0.00 0.00 0.00 46 1009.0
20240221183116 54 208 1.7 7.0 0.00 0.00 0.00 47 1009.0
20240221183010 54 94 0.9 7.0 0.00 0.00 0.00 47 1009.0
20240221182502 54 239 0.0 4.3 0.00 0.00 0.00 48 1009.0
20240221182111 54 122 0.0 7.0 0.00 0.00 0.00 49 1009.0
20240221181954 54 238 0.0 7.0 0.00 0.00 0.00 49 1009.5
20240221181445 54 142 0.0 7.0 0.00 0.00 0.00 49 1009.5
20240221181105 54 89 3.5 7.0 0.00 0.00 0.00 47 1009.5
20240221180937 54 120 1.7 7.0 0.00 0.00 0.00 47 1009.5
20240221180428 53 97 2.6 7.0 0.00 0.00 0.00 45 1009.5
20240221180059 53 94 0.0 7.0 0.00 0.00 0.00 45 1009.5
20240221175919 53 176 0.0 7.0 0.00 0.00 0.00 47 1009.5
20240221175411 52 87 1.7 7.0 0.00 0.00 0.00 48 1009.8
20240221175054 52 72 1.7 4.3 0.00 0.00 0.00 45 1009.8
20240221174903 51 78 1.7 4.3 0.00 0.00 0.00 46 1009.8
20240221174356 51 75 1.7 4.3 0.00 0.00 0.00 49 1009.8
20240221174048 51 65 1.7 7.0 0.00 0.00 0.00 49 1010.2
20240221173847 51 329 0.0 7.0 0.00 0.00 0.00 50 1009.8
20240221173338 50 145 0.9 7.0 0.00 0.00 0.00 51 1009.8
20240221173042 50 82 2.6 7.0 0.00 0.00 0.00 51 1010.2
20240221172830 50 62 1.7 7.0 0.00 0.00 0.00 51 1010.2
20240221172322 50 236 0.9 7.0 0.00 0.00 0.00 50 1010.2
20240221172317 50 58 3.5 8.7 0.00 0.00 0.00 50 1010.2
20240221172037 50 135 0.0 7.0 0.00 0.00 0.00 51 1010.2
20240221171305 50 61 1.7 8.7 0.00 0.00 0.00 52 1010.7
20240221171031 50 50 2.6 8.7 0.00 0.00 0.00 53 1010.2
20240221170757 50 173 0.9 7.0 0.00 0.00 0.00 53 1010.7
20240221170519 50 225 0.0 7.0 0.00 0.00 0.00 54 1010.7
20240221170026 50 115 2.6 7.0 0.00 0.00 0.00 54 1010.7
20240221165741 50 256 1.7 7.0 0.00 0.00 0.00 53 1011.0
20240221165232 50 213 0.0 7.0 0.00 0.00 0.00 52 1010.7
20240221165020 50 68 1.7 7.0 0.00 0.00 0.00 52 1010.7
20240221164723 50 74 1.7 4.3 0.00 0.00 0.00 52 1011.0
20240221164215 50 250 1.7 7.0 0.00 0.00 0.00 50 1011.0
20240221164015 50 166 0.0 7.0 0.00 0.00 0.00 51 1011.0
20240221163707 50 352 1.7 7.0 0.00 0.00 0.00 51 1011.0
20240221163158 50 80 1.7 4.3 0.00 0.00 0.00 49 1010.7
20240221163008 50 96 0.9 4.3 0.00 0.00 0.00 46 1011.0
20240221162649 50 193 0.0 4.3 0.00 0.00 0.00 52 1011.0
20240221162140 51 227 0.0 4.3 0.00 0.00 0.00 53 1011.0
20240221162001 51 264 0.0 4.3 0.00 0.00 0.00 52 1011.0
20240221161631 51 219 0.0 4.3 0.00 0.00 0.00 49 1011.0
20240221161625 51 72 1.7 1.7 0.00 0.00 0.00 49 1010.7
20240221160955 51 233 0.0 1.7 0.00 0.00 0.00 48 1011.0
20240221160614 50 200 0.0 1.7 0.00 0.00 0.00 47 1011.0
20240221160106 49 254 0.0 4.3 0.00 0.00 0.00 47 1011.5
20240221155950 49 208 0.0 4.3 0.00 0.00 0.00 47 1011.5
20240221155829 49 178 0.0 4.3 0.00 0.00 0.00 45 1011.0
20240221155050 47 71 2.6 4.3 0.00 0.00 0.00 43 1011.0
20240221154945 47 124 0.0 1.7 0.00 0.00 0.00 43 1011.0
20240221154542 46 80 1.7 1.7 0.00 0.00 0.00 44 1011.0
20240221154034 45 172 0.0 1.7 0.00 0.00 0.00 47 1011.5
20240221153939 45 113 0.0 1.7 0.00 0.00 0.00 46 1011.5
20240221153526 44 114 0.0 1.7 0.00 0.00 0.00 50 1011.0
20240221153018 44 158 0.0 1.7 0.00 0.00 0.00 53 1011.0
20240221152934 44 173 0.0 1.7 0.00 0.00 0.00 52 1011.0
20240221152510 43 221 0.0 1.7 0.00 0.00 0.00 54 1011.5
20240221152001 42 196 0.0 0.0 0.00 0.00 0.00 55 1011.5
20240221151928 42 194 0.0 0.0 0.00 0.00 0.00 55 1011.5
20240221151452 40 160 0.0 0.0 0.00 0.00 0.00 55 1011.5
20240221150944 39 91 0.0 1.7 0.00 0.00 0.00 54 1011.5
20240221150922 39 95 0.0 1.7 0.00 0.00 0.00 55 1011.5
20240221150435 38 197 0.0 1.7 0.00 0.00 0.00 58 1011.5
20240221150158 37 155 0.0 0.0 0.00 0.00 0.00 62 1011.8
20240221145916 37 173 0.0 0.0 0.00 0.00 0.00 62 1011.8
20240221145418 36 176 0.0 0.0 0.00 0.00 0.00 67 1011.8
20240221144909 35 186 0.0 0.0 0.00 0.00 0.00 70 1011.8
20240221144401 35 186 0.0 0.0 0.00 0.00 0.00 71 1011.8
20240221143903 35 190 0.0 0.0 0.00 0.00 0.00 71 1011.8
20240221143852 35 190 0.0 0.0 0.00 0.00 0.00 71 1011.8
20240221143344 35 184 0.0 0.0 0.00 0.00 0.00 72 1011.5
20240221142857 35 186 0.0 0.0 0.00 0.00 0.00 72 1011.5
20240221142835 35 190 0.0 0.0 0.00 0.00 0.00 72 1011.5
20240221142327 35 177 0.0 0.0 0.00 0.00 0.00 72 1011.8
20240221141852 35 187 0.0 0.0 0.00 0.00 0.00 72 1011.8
20240221141819 35 193 0.0 0.0 0.00 0.00 0.00 72 1011.5
20240221141310 36 181 0.0 0.0 0.00 0.00 0.00 70 1011.8
20240221140846 36 172 0.0 0.0 0.00 0.00 0.00 69 1011.8
20240221140802 36 180 0.0 0.0 0.00 0.00 0.00 69 1011.8
20240221140524 37 173 0.0 0.0 0.00 0.00 0.00 68 1011.8
20240221135840 37 193 0.0 0.0 0.00 0.00 0.00 67 1011.8
20240221135755 37 193 0.0 0.0 0.00 0.00 0.00 67 1011.8
20240221135245 37 193 0.0 0.0 0.00 0.00 0.00 67 1011.8
20240221134833 37 194 0.0 0.0 0.00 0.00 0.00 67 1011.8
20240221134737 37 196 0.0 0.0 0.00 0.00 0.00 66 1011.8
20240221134229 37 194 0.0 0.0 0.00 0.00 0.00 64 1011.8
20240221133827 38 195 0.0 1.7 0.00 0.00 0.00 66 1011.5
20240221133720 38 191 0.0 1.7 0.00 0.00 0.00 66 1011.8
20240221133444 38 198 0.0 1.7 0.00 0.00 0.00 65 1011.5
20240221132821 38 190 0.0 0.0 0.00 0.00 0.00 66 1011.8
20240221132704 38 213 0.0 0.0 0.00 0.00 0.00 65 1011.8
20240221132426 38 195 0.0 0.0 0.00 0.00 0.00 63 1011.8
20240221131917 38 194 0.0 0.0 0.00 0.00 0.00 64 1012.2
20240221131138 38 194 0.0 0.0 0.00 0.00 0.00 63 1012.2
20240221130809 38 191 0.0 1.7 0.00 0.00 0.00 63 1012.2
20240221130630 38 192 0.0 1.7 0.00 0.00 0.00 63 1012.2
20240221130121 38 201 0.0 1.7 0.00 0.00 0.00 63 1012.2
20240221125803 38 199 0.0 0.0 0.00 0.00 0.00 66 1012.2
20240221125613 38 194 0.0 0.0 0.00 0.00 0.00 65 1012.2
20240221125336 38 191 0.0 0.0 0.00 0.00 0.00 67 1012.2
20240221124758 38 192 0.0 0.0 0.00 0.00 0.00 65 1012.2
20240221124556 38 193 0.0 0.0 0.00 0.00 0.00 65 1012.2
20240221124047 38 190 0.0 0.0 0.00 0.00 0.00 66 1012.2
20240221123811 38 191 0.0 0.0 0.00 0.00 0.00 65 1012.2
20240221123751 38 189 0.0 0.0 0.00 0.00 0.00 65 1012.2
20240221123031 39 194 0.0 0.0 0.00 0.00 0.00 65 1012.2
20240221122746 39 196 0.0 0.0 0.00 0.00 0.00 64 1012.2
20240221122522 39 192 0.0 0.0 0.00 0.00 0.00 64 1012.7
20240221122014 39 192 0.0 0.0 0.00 0.00 0.00 62 1012.7
20240221121740 39 200 0.0 0.0 0.00 0.00 0.00 62 1012.7
20240221121506 39 194 0.0 0.0 0.00 0.00 0.00 63 1012.7
20240221120957 39 178 0.0 0.0 0.00 0.00 0.00 63 1012.7
20240221120734 39 183 0.0 0.0 0.00 0.00 0.00 62 1012.7
20240221120448 39 198 0.0 1.7 0.00 0.00 0.00 63 1012.7
20240221115940 39 184 0.0 1.7 0.00 0.00 0.00 64 1012.7
20240221115728 39 187 0.0 1.7 0.00 0.00 0.00 65 1013.0
20240221115701 40 167 0.0 0.0 0.00 0.00 0.00 66 1013.0
20240221114922 40 172 0.0 1.7 0.00 0.00 0.00 65 1012.7
20240221114721 40 167 0.0 1.7 0.00 0.00 0.00 64 1013.0
20240221114414 40 194 0.0 1.7 0.00 0.00 0.00 64 1013.0
20240221113905 40 193 0.0 4.3 0.00 0.00 0.00 64 1013.0
20240221113714 39 203 0.0 4.3 0.00 0.00 0.00 65 1013.0
20240221113356 39 153 0.0 4.3 0.00 0.00 0.00 63 1013.0
20240221113117 39 294 1.7 1.7 0.00 0.00 0.00 65 1013.0
20240221112708 39 189 0.0 1.7 0.00 0.00 0.00 65 1013.4
20240221112340 39 188 0.0 1.7 0.00 0.00 0.00 64 1013.0
20240221111828 38 184 0.0 0.0 0.00 0.00 0.00 66 1013.0
20240221111700 38 191 0.0 0.0 0.00 0.00 0.00 66 1013.4
20240221111319 38 199 0.0 1.7 0.00 0.00 0.00 67 1013.0
20240221110821 38 197 0.0 1.7 0.00 0.00 0.00 67 1013.4
20240221110651 38 195 0.0 1.7 0.00 0.00 0.00 67 1013.4
20240221110311 38 226 0.0 0.0 0.00 0.00 0.00 68 1013.0
20240221105802 38 178 0.0 0.0 0.00 0.00 0.00 67 1013.4
20240221105646 38 187 0.0 0.0 0.00 0.00 0.00 66 1013.0
20240221105252 38 193 0.0 1.7 0.00 0.00 0.00 67 1013.8
20240221104743 39 191 0.0 1.7 0.00 0.00 0.00 66 1013.4
20240221104638 39 194 0.0 1.7 0.00 0.00 0.00 66 1013.4
20240221104235 39 207 0.0 1.7 0.00 0.00 0.00 66 1013.4
20240221103726 39 190 0.0 1.7 0.00 0.00 0.00 68 1013.0
20240221103631 39 157 0.0 1.7 0.00 0.00 0.00 68 1013.4
20240221103216 39 181 0.0 1.7 0.00 0.00 0.00 68 1013.4
20240221102707 40 212 0.0 1.7 0.00 0.00 0.00 67 1013.4
20240221102624 40 186 0.0 1.7 0.00 0.00 0.00 66 1013.4
20240221102159 40 236 1.7 1.7 0.00 0.00 0.00 66 1013.4
20240221101650 41 185 0.0 1.7 0.00 0.00 0.00 67 1013.4
20240221101617 41 186 0.0 1.7 0.00 0.00 0.00 67 1013.4
20240221101141 41 169 0.0 0.0 0.00 0.00 0.00 64 1013.8
20240221100632 41 210 0.0 1.7 0.00 0.00 0.00 65 1013.8
20240221100610 41 180 0.0 1.7 0.00 0.00 0.00 65 1013.8
20240221100122 42 239 0.0 1.7 0.00 0.00 0.00 64 1013.8
20240221095613 42 136 0.0 0.0 0.00 0.00 0.00 63 1013.8
20240221095602 42 190 0.0 0.0 0.00 0.00 0.00 63 1013.8
20240221095115 43 204 0.0 4.3 0.00 0.00 0.00 61 1014.2
20240221094605 43 172 0.0 4.3 0.00 0.00 0.00 61 1014.2
20240221094554 43 178 0.0 4.3 0.00 0.00 0.00 62 1014.2
20240221094057 43 290 0.0 1.7 0.00 0.00 0.00 60 1014.2
20240221093819 42 200 0.0 1.7 0.00 0.00 0.00 59 1014.2
20240221093651 42 200 0.0 1.7 0.00 0.00 0.00 59 1014.2
20240221093039 42 184 0.0 1.7 0.00 0.00 0.00 56 1014.7
20240221092542 42 198 0.0 4.3 0.00 0.00 0.00 58 1014.7
20240221092530 42 187 0.0 4.3 0.00 0.00 0.00 57 1014.7
20240221092020 41 158 0.0 4.3 0.00 0.00 0.00 58 1014.7
20240221091534 41 194 0.0 0.0 0.00 0.00 0.00 61 1014.7
20240221091512 41 168 0.0 0.0 0.00 0.00 0.00 62 1014.7
20240221091003 41 183 0.0 1.7 0.00 0.00 0.00 65 1014.7
20240221090527 41 238 0.0 1.7 0.00 0.00 0.00 64 1014.7
20240221090454 41 228 0.0 1.7 0.00 0.00 0.00 64 1014.7
20240221085944 41 185 1.7 1.7 0.00 0.00 0.00 64 1015.0
20240221085519 41 195 0.0 1.7 0.00 0.00 0.00 65 1014.7
20240221085435 41 185 0.0 1.7 0.00 0.00 0.00 65 1015.0
20240221084926 41 229 1.7 1.7 0.00 0.00 0.00 65 1015.0
20240221084511 41 190 0.0 0.0 0.00 0.00 0.00 65 1014.7
20240221084416 41 196 0.0 0.0 0.00 0.00 0.00 65 1015.0
20240221083906 41 180 0.0 0.0 0.00 0.00 0.00 63 1015.0
20240221083503 42 186 0.0 0.0 0.00 0.00 0.00 62 1015.0
20240221083357 42 203 0.0 0.0 0.00 0.00 0.00 62 1015.0
20240221082848 42 192 0.0 0.0 0.00 0.00 0.00 63 1015.0
20240221082457 42 191 0.0 0.0 0.00 0.00 0.00 63 1015.4
20240221082337 42 191 0.0 0.0 0.00 0.00 0.00 63 1015.0
20240221082059 42 194 0.0 0.0 0.00 0.00 0.00 63 1015.4
20240221081448 42 202 0.0 0.0 0.00 0.00 0.00 63 1015.0
20240221081320 42 182 0.0 0.0 0.00 0.00 0.00 61 1015.4
20240221080811 42 186 0.0 0.0 0.00 0.00 0.00 61 1015.0
20240221080441 42 204 0.0 0.0 0.00 0.00 0.00 63 1015.4
20240221080302 42 246 0.0 0.0 0.00 0.00 0.00 62 1015.0
20240221075752 42 187 0.0 0.0 0.00 0.00 0.00 60 1015.4
20240221075434 42 188 0.0 0.0 0.00 0.00 0.00 61 1015.4
20240221075243 42 191 0.0 0.0 0.00 0.00 0.00 62 1015.4
20240221074734 42 194 0.0 0.0 0.00 0.00 0.00 60 1015.4
20240221074426 42 182 0.0 0.0 0.00 0.00 0.00 60 1015.4
20240221074225 42 181 0.0 0.0 0.00 0.00 0.00 60 1015.4
20240221073714 42 154 0.0 0.0 0.00 0.00 0.00 59 1015.8
20240221073418 42 171 0.0 0.0 0.00 0.00 0.00 60 1015.8
20240221073206 42 217 0.0 0.0 0.00 0.00 0.00 60 1016.2
20240221072418 42 198 0.0 0.0 0.00 0.00 0.00 62 1015.8
20240221072411 42 193 0.0 0.0 0.00 0.00 0.00 62 1015.8
20240221071638 43 177 0.0 0.0 0.00 0.00 0.00 62 1016.2
20240221071404 43 195 0.0 0.0 0.00 0.00 0.00 61 1016.2
20240221071130 43 191 0.0 0.0 0.00 0.00 0.00 61 1016.7
20240221070620 43 195 0.0 0.0 0.00 0.00 0.00 60 1016.7
20240221070355 43 191 0.0 0.0 0.00 0.00 0.00 60 1016.7
20240221070111 43 191 0.0 0.0 0.00 0.00 0.00 61 1016.7
20240221065602 43 204 0.0 1.7 0.00 0.00 0.00 59 1016.7
20240221065349 43 215 0.0 1.7 0.00 0.00 0.00 60 1016.7
20240221065053 43 171 0.0 1.7 0.00 0.00 0.00 59 1016.7
20240221064545 43 185 0.0 0.0 0.00 0.00 0.00 59 1016.7
20240221064343 43 192 0.0 0.0 0.00 0.00 0.00 59 1016.7
20240221064306 43 191 0.0 0.0 0.00 0.00 0.00 60 1016.7
20240221063527 43 199 0.0 0.0 0.00 0.00 0.00 59 1016.7
20240221063336 43 198 0.0 0.0 0.00 0.00 0.00 59 1016.7
20240221063248 43 194 0.0 0.0 0.00 0.00 0.00 59 1016.7
20240221062509 43 195 0.0 0.0 0.00 0.00 0.00 58 1016.7
20240221062329 43 191 0.0 0.0 0.00 0.00 0.00 60 1016.7
20240221062240 43 194 0.0 0.0 0.00 0.00 0.00 60 1016.2
20240221061500 43 186 0.0 0.0 0.00 0.00 0.00 60 1016.2
20240221061321 43 178 0.0 0.0 0.00 0.00 0.00 60 1016.7
20240221060952 43 177 0.0 0.0 0.00 0.00 0.00 59 1016.2
20240221060443 44 190 0.0 0.0 0.00 0.00 0.00 58 1016.2
20240221060315 44 199 0.0 0.0 0.00 0.00 0.00 58 1016.7
20240221055934 44 186 0.0 0.0 0.00 0.00 0.00 58 1016.2
20240221055656 44 180 0.0 0.0 0.00 0.00 0.00 57 1016.7
20240221055309 44 180 0.0 0.0 0.00 0.00 0.00 56 1016.7
20240221054917 44 182 0.0 0.0 0.00 0.00 0.00 56 1016.7
20240221054409 45 189 0.0 0.0 0.00 0.00 0.00 56 1016.7
20240221054303 45 191 0.0 0.0 0.00 0.00 0.00 57 1016.7
20240221054132 45 189 0.0 0.0 0.00 0.00 0.00 56 1016.7
20240221053623 45 182 0.0 0.0 0.00 0.00 0.00 55 1016.7
20240221053258 45 247 0.0 0.0 0.00 0.00 0.00 55 1016.7
20240221052845 46 191 0.0 0.0 0.00 0.00 0.00 57 1016.7
20240221052337 46 184 0.0 1.7 0.00 0.00 0.00 55 1016.7
20240221052253 46 192 0.0 1.7 0.00 0.00 0.00 55 1016.7
20240221052101 46 202 0.0 1.7 0.00 0.00 0.00 54 1016.7
20240221051322 46 220 0.0 1.7 0.00 0.00 0.00 55 1016.7
20240221051249 47 208 0.0 1.7 0.00 0.00 0.00 55 1016.7
20240221050813 47 195 0.0 0.0 0.00 0.00 0.00 54 1016.7
20240221050304 47 174 0.0 1.7 0.00 0.00 0.00 54 1016.7
20240221050242 48 189 0.0 1.7 0.00 0.00 0.00 54 1016.7
20240221045756 48 178 0.0 1.7 0.00 0.00 0.00 51 1016.7
20240221045517 49 251 0.0 0.0 0.00 0.00 0.00 52 1017.0
20240221045236 49 251 0.0 0.0 0.00 0.00 0.00 52 1016.7
20240221045010 49 188 0.0 0.0 0.00 0.00 0.00 51 1016.7
20240221044501 50 184 0.0 0.0 0.00 0.00 0.00 50 1016.7
20240221044335 50 184 0.0 0.0 0.00 0.00 0.00 50 1016.7
20240221044223 51 180 0.0 0.0 0.00 0.00 0.00 48 1016.7
20240221043225 51 169 0.0 4.3 0.00 0.00 0.00 46 1016.7
20240221043213 51 176 0.0 4.3 0.00 0.00 0.00 46 1016.7
20240221043206 51 190 0.0 4.3 0.00 0.00 0.00 45 1016.7
20240221042218 52 197 0.0 1.7 0.00 0.00 0.00 46 1016.7
20240221042155 52 196 0.0 1.7 0.00 0.00 0.00 46 1016.7
20240221041647 52 155 0.0 4.3 0.00 0.00 0.00 44 1016.7
20240221041212 52 178 0.0 7.0 0.00 0.00 0.00 43 1016.7
20240221041139 52 173 0.0 7.0 0.00 0.00 0.00 42 1016.7
20240221040901 52 167 2.6 7.0 0.00 0.00 0.00 42 1016.7